Year,Month,Day,Hour,Minute,Value (Times are PST for temperature in C)
2009,10,12,00,00,4.30
2009,10,12,00,01,4.20
2009,10,12,00,02,4.20
2009,10,12,00,03,4.20
2009,10,12,00,04,4.20
2009,10,12,00,05,4.20
2009,10,12,00,06,4.20
2009,10,12,00,07,4.20
2009,10,12,00,08,4.20
2009,10,12,00,09,4.10
2009,10,12,00,10,4.10
2009,10,12,00,11,4.10
2009,10,12,00,12,4.10
2009,10,12,00,13,4.10
2009,10,12,00,14,4.10
2009,10,12,00,15,4.10
2009,10,12,00,16,4.10
2009,10,12,00,17,4.10
2009,10,12,00,18,4.10
2009,10,12,00,19,4.00
2009,10,12,00,20,4.00
2009,10,12,00,21,4.00
2009,10,12,00,22,4.00
2009,10,12,00,23,4.00
2009,10,12,00,24,3.90
2009,10,12,00,25,3.90
2009,10,12,00,26,3.90
2009,10,12,00,27,3.90
2009,10,12,00,28,3.90
2009,10,12,00,29,3.90
2009,10,12,00,30,3.90
2009,10,12,00,31,3.90
2009,10,12,00,32,3.90
2009,10,12,00,33,3.90
2009,10,12,00,34,3.90
2009,10,12,00,35,3.90
2009,10,12,00,36,3.80
2009,10,12,00,37,3.80
2009,10,12,00,38,3.80
2009,10,12,00,39,3.80
2009,10,12,00,40,3.80
2009,10,12,00,41,3.80
2009,10,12,00,42,3.80
2009,10,12,00,43,3.80
2009,10,12,00,44,3.80
2009,10,12,00,45,3.80
2009,10,12,00,46,3.80
2009,10,12,00,47,3.80
2009,10,12,00,48,3.80
2009,10,12,00,49,3.80
2009,10,12,00,50,3.80
2009,10,12,00,51,3.80
2009,10,12,00,52,3.80
2009,10,12,00,53,3.80
2009,10,12,00,54,3.80
2009,10,12,00,55,3.80
2009,10,12,00,56,3.80
2009,10,12,00,57,3.80
2009,10,12,00,58,3.80
2009,10,12,00,59,3.80
2009,10,12,01,00,3.80
2009,10,12,01,01,3.80
2009,10,12,01,02,3.80
2009,10,12,01,03,3.80
2009,10,12,01,04,3.80
2009,10,12,01,05,3.80
2009,10,12,01,06,3.80
2009,10,12,01,07,3.80
2009,10,12,01,08,3.80
2009,10,12,01,09,3.80
2009,10,12,01,10,3.80
2009,10,12,01,11,3.80
2009,10,12,01,12,3.80
2009,10,12,01,13,3.80
2009,10,12,01,14,3.80
2009,10,12,01,15,3.80
2009,10,12,01,16,3.80
2009,10,12,01,17,3.80
2009,10,12,01,18,3.80
2009,10,12,01,19,3.80
2009,10,12,01,20,3.80
2009,10,12,01,21,3.80
2009,10,12,01,22,3.80
2009,10,12,01,23,3.80
2009,10,12,01,24,3.80
2009,10,12,01,25,3.80
2009,10,12,01,26,3.80
2009,10,12,01,27,3.80
2009,10,12,01,28,3.80
2009,10,12,01,29,3.80
2009,10,12,01,30,3.80
2009,10,12,01,31,3.80
2009,10,12,01,32,3.80
2009,10,12,01,33,3.80
2009,10,12,01,34,3.80
2009,10,12,01,35,3.80
2009,10,12,01,36,3.80
2009,10,12,01,37,3.80
2009,10,12,01,38,3.80
2009,10,12,01,39,3.80
2009,10,12,01,40,3.80
2009,10,12,01,41,3.80
2009,10,12,01,42,3.80
2009,10,12,01,43,3.80
2009,10,12,01,44,3.80
2009,10,12,01,49,3.80
2009,10,12,01,50,3.80
2009,10,12,01,51,3.80
2009,10,12,01,52,3.80
2009,10,12,01,53,3.80
2009,10,12,01,54,3.80
2009,10,12,01,55,3.80
2009,10,12,01,56,3.80
2009,10,12,01,57,3.80
2009,10,12,01,58,3.80
2009,10,12,01,59,3.80
2009,10,12,02,00,3.80
2009,10,12,02,01,3.80
2009,10,12,02,02,3.80
2009,10,12,02,03,3.80
2009,10,12,02,04,3.80
2009,10,12,02,05,3.80
2009,10,12,02,06,3.80
2009,10,12,02,07,3.80
2009,10,12,02,08,3.80
2009,10,12,02,09,3.80
2009,10,12,02,10,3.80
2009,10,12,02,11,3.80
2009,10,12,02,12,3.80
2009,10,12,02,13,3.80
2009,10,12,02,14,3.80
2009,10,12,02,15,3.80
2009,10,12,02,16,3.80
2009,10,12,02,17,3.80
2009,10,12,02,18,3.80
2009,10,12,02,19,3.80
2009,10,12,02,20,3.80
2009,10,12,02,21,3.80
2009,10,12,02,22,3.80
2009,10,12,02,23,3.80
2009,10,12,02,24,3.80
2009,10,12,02,25,3.80
2009,10,12,02,26,3.80
2009,10,12,02,27,3.80
2009,10,12,02,28,3.80
2009,10,12,02,29,3.80
2009,10,12,02,30,3.80
2009,10,12,02,31,3.80
2009,10,12,02,32,3.80
2009,10,12,02,33,3.80
2009,10,12,02,34,3.80
2009,10,12,02,35,3.80
2009,10,12,02,36,3.80
2009,10,12,02,37,3.80
2009,10,12,02,38,3.80
2009,10,12,02,39,3.90
2009,10,12,02,40,3.90
2009,10,12,02,41,3.90
2009,10,12,02,42,3.90
2009,10,12,02,43,3.90
2009,10,12,02,44,3.90
2009,10,12,02,45,3.90
2009,10,12,02,46,3.90
2009,10,12,02,47,3.90
2009,10,12,02,48,3.90
2009,10,12,02,49,3.90
2009,10,12,02,50,3.90
2009,10,12,02,51,3.90
2009,10,12,02,52,3.90
2009,10,12,02,53,3.90
2009,10,12,02,54,3.90
2009,10,12,02,55,3.90
2009,10,12,02,56,3.90
2009,10,12,02,57,3.90
2009,10,12,02,58,3.90
2009,10,12,02,59,3.90
2009,10,12,03,00,3.90
2009,10,12,03,01,3.90
2009,10,12,03,02,3.90
2009,10,12,03,03,3.90
2009,10,12,03,04,3.90
2009,10,12,03,05,3.90
2009,10,12,03,06,3.90
2009,10,12,03,07,3.90
2009,10,12,03,08,3.90
2009,10,12,03,09,3.90
2009,10,12,03,10,3.90
2009,10,12,03,11,3.90
2009,10,12,03,12,3.90
2009,10,12,03,13,3.90
2009,10,12,03,14,3.90
2009,10,12,03,15,3.90
2009,10,12,03,16,3.90
2009,10,12,03,17,3.90
2009,10,12,03,18,3.90
2009,10,12,03,19,3.90
2009,10,12,03,20,3.90
2009,10,12,03,21,3.90
2009,10,12,03,22,3.90
2009,10,12,03,23,3.90
2009,10,12,03,24,3.90
2009,10,12,03,25,3.90
2009,10,12,03,26,3.90
2009,10,12,03,27,3.90
2009,10,12,03,28,3.90
2009,10,12,03,29,3.90
2009,10,12,03,30,3.90
2009,10,12,03,31,3.90
2009,10,12,03,32,3.90
2009,10,12,03,33,3.90
2009,10,12,03,34,3.90
2009,10,12,03,35,3.90
2009,10,12,03,36,3.90
2009,10,12,03,37,3.90
2009,10,12,03,38,3.90
2009,10,12,03,39,3.90
2009,10,12,03,40,3.90
2009,10,12,03,41,3.90
2009,10,12,03,42,3.90
2009,10,12,03,43,3.90
2009,10,12,03,44,3.90
2009,10,12,03,45,3.90
2009,10,12,03,46,3.90
2009,10,12,03,47,3.90
2009,10,12,03,48,3.90
2009,10,12,03,49,3.90
2009,10,12,03,50,3.90
2009,10,12,03,51,3.90
2009,10,12,03,52,3.90
2009,10,12,03,53,3.90
2009,10,12,03,54,3.90
2009,10,12,03,55,3.90
2009,10,12,03,56,3.90
2009,10,12,03,57,3.90
2009,10,12,03,58,3.90
2009,10,12,03,59,3.90
2009,10,12,04,00,3.90
2009,10,12,04,01,3.90
2009,10,12,04,02,3.90
2009,10,12,04,03,3.90
2009,10,12,04,04,3.90
2009,10,12,04,05,3.90
2009,10,12,04,06,3.90
2009,10,12,04,07,3.90
2009,10,12,04,08,3.90
2009,10,12,04,09,3.90
2009,10,12,04,10,3.90
2009,10,12,04,11,3.90
2009,10,12,04,12,4.00
2009,10,12,04,13,4.00
2009,10,12,04,14,4.00
2009,10,12,04,15,4.00
2009,10,12,04,16,4.00
2009,10,12,04,17,4.00
2009,10,12,04,18,4.00
2009,10,12,04,19,4.00
2009,10,12,04,20,4.00
2009,10,12,04,21,4.00
2009,10,12,04,22,4.00
2009,10,12,04,23,4.00
2009,10,12,04,24,4.00
2009,10,12,04,25,4.00
2009,10,12,04,26,4.00
2009,10,12,04,27,4.00
2009,10,12,04,28,4.00
2009,10,12,04,29,4.10
2009,10,12,04,30,4.10
2009,10,12,04,31,4.10
2009,10,12,04,32,4.10
2009,10,12,04,33,4.10
2009,10,12,04,34,4.10
2009,10,12,04,35,4.10
2009,10,12,04,36,4.10
2009,10,12,04,37,4.10
2009,10,12,04,38,4.10
2009,10,12,04,39,4.10
2009,10,12,04,40,4.10
2009,10,12,04,41,4.10
2009,10,12,04,42,4.10
2009,10,12,04,43,4.10
2009,10,12,04,44,4.10
2009,10,12,04,45,4.10
2009,10,12,04,46,4.10
2009,10,12,04,47,4.10
2009,10,12,04,48,4.10
2009,10,12,04,49,4.10
2009,10,12,04,50,4.10
2009,10,12,04,51,4.10
2009,10,12,04,52,4.10
2009,10,12,04,53,4.10
2009,10,12,04,54,4.10
2009,10,12,04,55,4.10
2009,10,12,04,56,4.10
2009,10,12,04,57,4.10
2009,10,12,04,58,4.10
2009,10,12,04,59,4.10
2009,10,12,05,00,4.10
2009,10,12,05,01,4.10
2009,10,12,05,02,4.10
2009,10,12,05,03,4.10
2009,10,12,05,04,4.10
2009,10,12,05,05,4.10
2009,10,12,05,06,4.10
2009,10,12,05,07,4.10
2009,10,12,05,08,4.10
2009,10,12,05,09,4.10
2009,10,12,05,10,4.20
2009,10,12,05,11,4.20
2009,10,12,05,12,4.20
2009,10,12,05,13,4.20
2009,10,12,05,14,4.20
2009,10,12,05,15,4.20
2009,10,12,05,16,4.20
2009,10,12,05,17,4.20
2009,10,12,05,18,4.20
2009,10,12,05,19,4.20
2009,10,12,05,20,4.20
2009,10,12,05,21,4.20
2009,10,12,05,22,4.20
2009,10,12,05,23,4.20
2009,10,12,05,24,4.20
2009,10,12,05,25,4.20
2009,10,12,05,26,4.20
2009,10,12,05,27,4.20
2009,10,12,05,28,4.20
2009,10,12,05,29,4.20
2009,10,12,05,30,4.20
2009,10,12,05,31,4.20
2009,10,12,05,32,4.20
2009,10,12,05,33,4.20
2009,10,12,05,34,4.20
2009,10,12,05,35,4.20
2009,10,12,05,36,4.20
2009,10,12,05,37,4.20
2009,10,12,05,38,4.30
2009,10,12,05,39,4.30
2009,10,12,05,40,4.30
2009,10,12,05,41,4.30
2009,10,12,05,42,4.30
2009,10,12,05,43,4.30
2009,10,12,05,44,4.30
2009,10,12,05,45,4.30
2009,10,12,05,46,4.30
2009,10,12,05,47,4.40
2009,10,12,05,48,4.40
2009,10,12,05,49,4.40
2009,10,12,05,50,4.40
2009,10,12,05,51,4.40
2009,10,12,05,52,4.40
2009,10,12,05,53,4.40
2009,10,12,05,54,4.50
2009,10,12,05,55,4.50
2009,10,12,05,56,4.50
2009,10,12,05,57,4.60
2009,10,12,05,58,4.60
2009,10,12,05,59,4.60
2009,10,12,06,00,4.60
2009,10,12,06,01,4.60
2009,10,12,06,02,4.60
2009,10,12,06,03,4.70
2009,10,12,06,04,4.70
2009,10,12,06,05,4.70
2009,10,12,06,06,4.70
2009,10,12,06,07,4.70
2009,10,12,06,08,4.70
2009,10,12,06,09,4.80
2009,10,12,06,10,4.80
2009,10,12,06,11,4.80
2009,10,12,06,12,4.80
2009,10,12,06,13,4.80
2009,10,12,06,14,4.80
2009,10,12,06,15,4.80
2009,10,12,06,16,4.90
2009,10,12,06,17,4.90
2009,10,12,06,18,4.90
2009,10,12,06,19,4.90
2009,10,12,06,20,4.90
2009,10,12,06,21,5.00
2009,10,12,06,22,5.00
2009,10,12,06,23,5.00
2009,10,12,06,24,5.00
2009,10,12,06,25,5.10
2009,10,12,06,26,5.10
2009,10,12,06,27,5.10
2009,10,12,06,28,5.10
2009,10,12,06,29,5.10
2009,10,12,06,30,5.10
2009,10,12,06,31,5.10
2009,10,12,06,32,5.10
2009,10,12,06,33,5.20
2009,10,12,06,34,5.20
2009,10,12,06,35,5.20
2009,10,12,06,36,5.20
2009,10,12,06,37,5.20
2009,10,12,06,38,5.20
2009,10,12,06,39,5.20
2009,10,12,06,40,5.30
2009,10,12,06,41,5.30
2009,10,12,06,42,5.30
2009,10,12,06,43,5.30
2009,10,12,06,44,5.30
2009,10,12,06,45,5.30
2009,10,12,06,46,5.30
2009,10,12,06,47,5.30
2009,10,12,06,48,5.40
2009,10,12,06,49,5.40
2009,10,12,06,50,5.40
2009,10,12,06,51,5.40
2009,10,12,06,52,5.40
2009,10,12,06,53,5.50
2009,10,12,06,54,5.50
2009,10,12,06,55,5.50
2009,10,12,06,56,5.50
2009,10,12,06,57,5.60
2009,10,12,06,58,5.60
2009,10,12,06,59,5.60
2009,10,12,07,00,5.60
2009,10,12,07,01,5.60
2009,10,12,07,02,5.60
2009,10,12,07,03,5.70
2009,10,12,07,04,5.70
2009,10,12,07,05,5.70
2009,10,12,07,06,5.70
2009,10,12,07,07,5.80
2009,10,12,07,08,5.80
2009,10,12,07,09,5.90
2009,10,12,07,10,5.90
2009,10,12,07,11,5.90
2009,10,12,07,12,6.00
2009,10,12,07,13,6.00
2009,10,12,07,14,6.00
2009,10,12,07,15,6.10
2009,10,12,07,16,6.20
2009,10,12,07,17,6.20
2009,10,12,07,18,6.30
2009,10,12,07,19,6.30
2009,10,12,07,20,6.50
2009,10,12,07,21,6.60
2009,10,12,07,22,6.70
2009,10,12,07,23,6.70
2009,10,12,07,24,6.70
2009,10,12,07,25,6.80
2009,10,12,07,26,6.80
2009,10,12,07,27,6.80
2009,10,12,07,28,6.80
2009,10,12,07,29,6.80
2009,10,12,07,30,6.80
2009,10,12,07,31,6.80
2009,10,12,07,32,6.80
2009,10,12,07,33,6.80
2009,10,12,07,34,6.80
2009,10,12,07,35,6.90
2009,10,12,07,36,6.90
2009,10,12,07,37,6.90
2009,10,12,07,38,6.90
2009,10,12,07,39,6.90
2009,10,12,07,40,6.90
2009,10,12,07,41,6.90
2009,10,12,07,42,6.90
2009,10,12,07,43,7.00
2009,10,12,07,44,7.00
2009,10,12,07,45,7.00
2009,10,12,07,46,7.10
2009,10,12,07,47,7.10
2009,10,12,07,48,7.10
2009,10,12,07,49,7.10
2009,10,12,07,50,7.10
2009,10,12,07,51,7.20
2009,10,12,07,52,7.20
2009,10,12,07,53,7.20
2009,10,12,07,54,7.20
2009,10,12,07,55,7.20
2009,10,12,07,56,7.30
2009,10,12,07,57,7.30
2009,10,12,07,58,7.30
2009,10,12,07,59,7.30
2009,10,12,08,00,7.20
2009,10,12,08,01,7.20
2009,10,12,08,02,7.20
2009,10,12,08,03,7.20
2009,10,12,08,04,7.30
2009,10,12,08,05,7.30
2009,10,12,08,06,7.30
2009,10,12,08,07,7.30
2009,10,12,08,08,7.30
2009,10,12,08,09,7.30
2009,10,12,08,10,7.30
2009,10,12,08,11,7.30
2009,10,12,08,12,7.30
2009,10,12,08,13,7.30
2009,10,12,08,14,7.30
2009,10,12,08,15,7.30
2009,10,12,08,16,7.30
2009,10,12,08,17,7.40
2009,10,12,08,18,7.40
2009,10,12,08,19,7.40
2009,10,12,08,20,7.40
2009,10,12,08,21,7.40
2009,10,12,08,22,7.30
2009,10,12,08,23,7.40
2009,10,12,08,24,7.40
2009,10,12,08,25,7.50
2009,10,12,08,26,7.50
2009,10,12,08,27,7.50
2009,10,12,08,28,7.60
2009,10,12,08,29,7.60
2009,10,12,08,30,7.60
2009,10,12,08,31,7.60
2009,10,12,08,32,7.60
2009,10,12,08,33,7.60
2009,10,12,08,34,7.60
2009,10,12,08,35,7.70
2009,10,12,08,36,7.70
2009,10,12,08,37,7.70
2009,10,12,08,38,7.70
2009,10,12,08,39,7.70
2009,10,12,08,40,7.70
2009,10,12,08,41,7.70
2009,10,12,08,42,7.70
2009,10,12,08,43,7.80
2009,10,12,08,44,7.80
2009,10,12,08,45,7.80
2009,10,12,08,46,7.80
2009,10,12,08,47,7.80
2009,10,12,08,48,7.90
2009,10,12,08,49,7.90
2009,10,12,08,50,7.90
2009,10,12,08,51,7.90
2009,10,12,08,52,7.90
2009,10,12,08,53,7.90
2009,10,12,08,54,7.90
2009,10,12,08,55,7.90
2009,10,12,08,56,7.90
2009,10,12,08,57,7.90
2009,10,12,08,58,7.90
2009,10,12,08,59,8.00
2009,10,12,09,00,7.90
2009,10,12,09,01,8.00
2009,10,12,09,02,8.00
2009,10,12,09,03,8.00
2009,10,12,09,04,8.00
2009,10,12,09,05,8.00
2009,10,12,09,06,8.00
2009,10,12,09,07,8.10
2009,10,12,09,08,8.10
2009,10,12,09,09,8.10
2009,10,12,09,10,8.10
2009,10,12,09,11,8.10
2009,10,12,09,12,8.10
2009,10,12,09,13,8.10
2009,10,12,09,14,8.10
2009,10,12,09,15,8.10
2009,10,12,09,16,8.10
2009,10,12,09,17,8.10
2009,10,12,09,18,8.10
2009,10,12,09,19,8.10
2009,10,12,09,20,8.10
2009,10,12,09,21,8.10
2009,10,12,09,22,8.10
2009,10,12,09,23,8.10
2009,10,12,09,24,8.10
2009,10,12,09,25,8.20
2009,10,12,09,26,8.20
2009,10,12,09,27,8.20
2009,10,12,09,28,8.20
2009,10,12,09,29,8.20
2009,10,12,09,30,8.20
2009,10,12,09,31,8.20
2009,10,12,09,32,8.20
2009,10,12,09,33,8.30
2009,10,12,09,34,8.30
2009,10,12,09,35,8.30
2009,10,12,09,36,8.30
2009,10,12,09,37,8.30
2009,10,12,09,38,8.40
2009,10,12,09,39,8.40
2009,10,12,09,40,8.40
2009,10,12,09,41,8.40
2009,10,12,09,42,8.40
2009,10,12,09,43,8.40
2009,10,12,09,44,8.40
2009,10,12,09,45,8.30
2009,10,12,09,46,8.30
2009,10,12,09,47,8.30
2009,10,12,09,48,8.30
2009,10,12,09,49,8.30
2009,10,12,09,50,8.30
2009,10,12,09,51,8.30
2009,10,12,09,52,8.30
2009,10,12,09,53,8.40
2009,10,12,09,54,8.40
2009,10,12,09,55,8.40
2009,10,12,09,56,8.40
2009,10,12,09,57,8.40
2009,10,12,09,58,8.40
2009,10,12,09,59,8.40
2009,10,12,10,00,8.40
2009,10,12,10,01,8.40
2009,10,12,10,02,8.40
2009,10,12,10,03,8.40
2009,10,12,10,04,8.40
2009,10,12,10,05,8.40
2009,10,12,10,06,8.40
2009,10,12,10,07,8.40
2009,10,12,10,08,8.40
2009,10,12,10,09,8.40
2009,10,12,10,10,8.50
2009,10,12,10,11,8.50
2009,10,12,10,12,8.50
2009,10,12,10,13,8.50
2009,10,12,10,14,8.60
2009,10,12,10,15,8.60
2009,10,12,10,16,8.60
2009,10,12,10,17,8.60
2009,10,12,10,18,8.60
2009,10,12,10,19,8.60
2009,10,12,10,20,8.60
2009,10,12,10,21,8.60
2009,10,12,10,22,8.60
2009,10,12,10,23,8.60
2009,10,12,10,24,8.70
2009,10,12,10,25,8.70
2009,10,12,10,26,8.70
2009,10,12,10,27,8.70
2009,10,12,10,28,8.80
2009,10,12,10,29,8.80
2009,10,12,10,30,8.80
2009,10,12,10,31,8.80
2009,10,12,10,32,8.80
2009,10,12,10,33,8.80
2009,10,12,10,34,8.90
2009,10,12,10,35,8.90
2009,10,12,10,36,8.90
2009,10,12,10,37,8.90
2009,10,12,10,38,8.90
2009,10,12,10,39,9.00
2009,10,12,10,40,9.00
2009,10,12,10,41,9.00
2009,10,12,10,42,9.00
2009,10,12,10,43,9.00
2009,10,12,10,44,9.00
2009,10,12,10,45,9.00
2009,10,12,10,46,9.00
2009,10,12,10,47,9.00
2009,10,12,10,48,9.00
2009,10,12,10,49,9.00
2009,10,12,10,50,9.00
2009,10,12,10,51,9.00
2009,10,12,10,52,9.00
2009,10,12,10,53,8.90
2009,10,12,10,54,8.90
2009,10,12,10,55,8.90
2009,10,12,10,56,8.90
2009,10,12,10,57,8.90
2009,10,12,10,58,8.90
2009,10,12,10,59,8.90
2009,10,12,11,00,8.90
2009,10,12,11,01,9.00
2009,10,12,11,02,9.00
2009,10,12,11,03,9.00
2009,10,12,11,04,9.00
2009,10,12,11,05,9.10
2009,10,12,11,06,9.10
2009,10,12,11,07,9.10
2009,10,12,11,08,9.10
2009,10,12,11,09,9.20
2009,10,12,11,10,9.20
2009,10,12,11,11,9.20
2009,10,12,11,12,9.20
2009,10,12,11,13,9.20
2009,10,12,11,14,9.20
2009,10,12,11,15,9.20
2009,10,12,11,16,9.20
2009,10,12,11,17,9.20
2009,10,12,11,18,9.20
2009,10,12,11,19,9.20
2009,10,12,11,20,9.20
2009,10,12,11,21,9.20
2009,10,12,11,22,9.20
2009,10,12,11,23,9.20
2009,10,12,11,24,9.30
2009,10,12,11,25,9.30
2009,10,12,11,26,9.30
2009,10,12,11,27,9.30
2009,10,12,11,28,9.30
2009,10,12,11,29,9.30
2009,10,12,11,30,9.30
2009,10,12,11,31,9.30
2009,10,12,11,32,9.40
2009,10,12,11,33,9.40
2009,10,12,11,34,9.40
2009,10,12,11,35,9.40
2009,10,12,11,36,9.40
2009,10,12,11,37,9.40
2009,10,12,11,38,9.40
2009,10,12,11,39,9.40
2009,10,12,11,40,9.40
2009,10,12,11,41,9.40
2009,10,12,11,42,9.40
2009,10,12,11,43,9.30
2009,10,12,11,44,9.30
2009,10,12,11,45,9.30
2009,10,12,11,46,9.30
2009,10,12,11,47,9.30
2009,10,12,11,48,9.30
2009,10,12,11,49,9.30
2009,10,12,11,50,9.30
2009,10,12,11,51,9.30
2009,10,12,11,52,9.30
2009,10,12,11,53,9.40
2009,10,12,11,54,9.40
2009,10,12,11,55,9.40
2009,10,12,11,56,9.40
2009,10,12,11,57,9.40
2009,10,12,11,58,9.40
2009,10,12,11,59,9.40
2009,10,12,12,00,9.40
2009,10,12,12,01,9.40
2009,10,12,12,02,9.40
2009,10,12,12,03,9.40
2009,10,12,12,04,9.40
2009,10,12,12,05,9.40
2009,10,12,12,06,9.40
2009,10,12,12,07,9.40
2009,10,12,12,08,9.40
2009,10,12,12,09,9.40
2009,10,12,12,10,9.40
2009,10,12,12,11,9.40
2009,10,12,12,12,9.40
2009,10,12,12,13,9.40
2009,10,12,12,14,9.40
2009,10,12,12,15,9.40
2009,10,12,12,16,9.50
2009,10,12,12,17,9.50
2009,10,12,12,18,9.50
2009,10,12,12,19,9.60
2009,10,12,12,20,9.60
2009,10,12,12,21,9.60
2009,10,12,12,22,9.60
2009,10,12,12,23,9.60
2009,10,12,12,24,9.60
2009,10,12,12,25,9.60
2009,10,12,12,26,9.60
2009,10,12,12,27,9.60
2009,10,12,12,28,9.60
2009,10,12,12,29,9.60
2009,10,12,12,30,9.60
2009,10,12,12,31,9.70
2009,10,12,12,32,9.70
2009,10,12,12,33,9.70
2009,10,12,12,34,9.70
2009,10,12,12,35,9.70
2009,10,12,12,36,9.70
2009,10,12,12,37,9.70
2009,10,12,12,38,9.80
2009,10,12,12,39,9.80
2009,10,12,12,40,9.80
2009,10,12,12,41,9.80
2009,10,12,12,42,9.90
2009,10,12,12,43,9.90
2009,10,12,12,44,9.90
2009,10,12,12,45,10.00
2009,10,12,12,46,10.10
2009,10,12,12,47,10.10
2009,10,12,12,48,10.20
2009,10,12,12,49,10.20
2009,10,12,12,50,10.20
2009,10,12,12,51,10.30
2009,10,12,12,52,10.30
2009,10,12,12,53,10.30
2009,10,12,12,54,10.30
2009,10,12,12,55,10.40
2009,10,12,12,56,10.40
2009,10,12,12,57,10.40
2009,10,12,12,58,10.50
2009,10,12,12,59,10.50
2009,10,12,13,00,10.50
2009,10,12,13,01,10.60
2009,10,12,13,02,10.60
2009,10,12,13,03,10.60
2009,10,12,13,04,10.60
2009,10,12,13,05,10.60
2009,10,12,13,06,10.50
2009,10,12,13,07,10.50
2009,10,12,13,08,10.50
2009,10,12,13,09,10.60
2009,10,12,13,10,10.60
2009,10,12,13,11,10.60
2009,10,12,13,12,10.60
2009,10,12,13,13,10.60
2009,10,12,13,14,10.60
2009,10,12,13,15,10.60
2009,10,12,13,16,10.60
2009,10,12,13,17,10.60
2009,10,12,13,18,10.60
2009,10,12,13,19,10.60
2009,10,12,13,20,10.60
2009,10,12,13,21,10.60
2009,10,12,13,22,10.60
2009,10,12,13,23,10.60
2009,10,12,13,24,10.60
2009,10,12,13,25,10.60
2009,10,12,13,26,10.60
2009,10,12,13,27,10.60
2009,10,12,13,28,10.60
2009,10,12,13,29,10.60
2009,10,12,13,30,10.60
2009,10,12,13,31,10.60
2009,10,12,13,32,10.60
2009,10,12,13,33,10.60
2009,10,12,13,34,10.50
2009,10,12,13,35,10.50
2009,10,12,13,36,10.50
2009,10,12,13,37,10.50
2009,10,12,13,38,10.60
2009,10,12,13,39,10.60
2009,10,12,13,40,10.60
2009,10,12,13,41,10.60
2009,10,12,13,42,10.70
2009,10,12,13,43,10.70
2009,10,12,13,44,10.70
2009,10,12,13,45,10.70
2009,10,12,13,46,10.80
2009,10,12,13,47,10.80
2009,10,12,13,48,10.80
2009,10,12,13,49,10.70
2009,10,12,13,50,10.70
2009,10,12,13,51,10.70
2009,10,12,13,52,10.70
2009,10,12,13,53,10.70
2009,10,12,13,54,10.70
2009,10,12,13,55,10.70
2009,10,12,13,56,10.70
2009,10,12,13,57,10.70
2009,10,12,13,58,10.70
2009,10,12,13,59,10.70
2009,10,12,14,00,10.70
2009,10,12,14,01,10.70
2009,10,12,14,02,10.60
2009,10,12,14,03,10.60
2009,10,12,14,04,10.60
2009,10,12,14,05,10.60
2009,10,12,14,06,10.60
2009,10,12,14,07,10.60
2009,10,12,14,08,10.60
2009,10,12,14,09,10.60
2009,10,12,14,10,10.60
2009,10,12,14,11,10.60
2009,10,12,14,12,10.60
2009,10,12,14,13,10.70
2009,10,12,14,14,10.70
2009,10,12,14,15,10.80
2009,10,12,14,16,10.80
2009,10,12,14,17,10.90
2009,10,12,14,18,11.00
2009,10,12,14,19,11.00
2009,10,12,14,20,11.10
2009,10,12,14,21,11.20
2009,10,12,14,22,11.30
2009,10,12,14,23,11.40
2009,10,12,14,24,11.40
2009,10,12,14,25,11.40
2009,10,12,14,26,11.50
2009,10,12,14,27,11.50
2009,10,12,14,28,11.60
2009,10,12,14,29,11.60
2009,10,12,14,30,11.70
2009,10,12,14,31,11.80
2009,10,12,14,32,11.80
2009,10,12,14,33,11.80
2009,10,12,14,34,11.80
2009,10,12,14,35,11.90
2009,10,12,14,36,11.90
2009,10,12,14,37,11.80
2009,10,12,14,38,11.80
2009,10,12,14,39,11.80
2009,10,12,14,40,11.80
2009,10,12,14,41,11.80
2009,10,12,14,42,11.80
2009,10,12,14,43,11.70
2009,10,12,14,44,11.60
2009,10,12,14,45,11.50
2009,10,12,14,46,11.40
2009,10,12,14,47,11.30
2009,10,12,14,48,11.20
2009,10,12,14,49,11.20
2009,10,12,14,50,11.10
2009,10,12,14,51,11.10
2009,10,12,14,52,11.10
2009,10,12,14,53,11.00
2009,10,12,14,54,11.00
2009,10,12,14,55,11.00
2009,10,12,14,56,11.00
2009,10,12,14,57,11.00
2009,10,12,14,58,10.90
2009,10,12,14,59,10.90
2009,10,12,15,00,10.80
2009,10,12,15,01,10.80
2009,10,12,15,02,10.80
2009,10,12,15,03,10.80
2009,10,12,15,04,10.70
2009,10,12,15,05,10.70
2009,10,12,15,06,10.70
2009,10,12,15,07,10.70
2009,10,12,15,08,10.60
2009,10,12,15,09,10.60
2009,10,12,15,10,10.60
2009,10,12,15,11,10.60
2009,10,12,15,12,10.70
2009,10,12,15,13,10.70
2009,10,12,15,14,10.70
2009,10,12,15,15,10.80
2009,10,12,15,16,10.80
2009,10,12,15,17,10.90
2009,10,12,15,18,10.90
2009,10,12,15,19,11.00
2009,10,12,15,20,11.00
2009,10,12,15,21,11.10
2009,10,12,15,22,11.10
2009,10,12,15,23,11.10
2009,10,12,15,24,11.10
2009,10,12,15,25,11.10
2009,10,12,15,26,11.10
2009,10,12,15,27,11.10
2009,10,12,15,28,11.10
2009,10,12,15,29,11.10
2009,10,12,15,30,11.10
2009,10,12,15,31,11.00
2009,10,12,15,32,10.90
2009,10,12,15,33,10.90
2009,10,12,15,34,10.80
2009,10,12,15,35,10.80
2009,10,12,15,36,10.70
2009,10,12,15,37,10.70
2009,10,12,15,38,10.60
2009,10,12,15,39,10.50
2009,10,12,15,40,10.50
2009,10,12,15,41,10.40
2009,10,12,15,42,10.40
2009,10,12,15,43,10.30
2009,10,12,15,44,10.30
2009,10,12,15,45,10.30
2009,10,12,15,46,10.20
2009,10,12,15,47,10.20
2009,10,12,15,48,10.20
2009,10,12,15,49,10.20
2009,10,12,15,50,10.20
2009,10,12,15,51,10.20
2009,10,12,15,52,10.20
2009,10,12,15,53,10.20
2009,10,12,15,54,10.20
2009,10,12,15,55,10.20
2009,10,12,15,56,10.20
2009,10,12,15,57,10.20
2009,10,12,15,58,10.20
2009,10,12,15,59,10.20
2009,10,12,16,00,10.20
2009,10,12,16,01,10.20
2009,10,12,16,02,10.20
2009,10,12,16,03,10.20
2009,10,12,16,04,10.20
2009,10,12,16,05,10.20
2009,10,12,16,06,10.20
2009,10,12,16,07,10.20
2009,10,12,16,08,10.20
2009,10,12,16,09,10.20
2009,10,12,16,10,10.20
2009,10,12,16,11,10.20
2009,10,12,16,12,10.30
2009,10,12,16,13,10.30
2009,10,12,16,14,10.30
2009,10,12,16,15,10.30
2009,10,12,16,16,10.30
2009,10,12,16,17,10.30
2009,10,12,16,18,10.30
2009,10,12,16,19,10.30
2009,10,12,16,20,10.30
2009,10,12,16,21,10.30
2009,10,12,16,22,10.30
2009,10,12,16,23,10.30
2009,10,12,16,24,10.30
2009,10,12,16,25,10.30
2009,10,12,16,26,10.30
2009,10,12,16,27,10.30
2009,10,12,16,28,10.30
2009,10,12,16,29,10.30
2009,10,12,16,30,10.30
2009,10,12,16,31,10.30
2009,10,12,16,32,10.20
2009,10,12,16,33,10.20
2009,10,12,16,34,10.20
2009,10,12,16,35,10.20
2009,10,12,16,36,10.20
2009,10,12,16,37,10.20
2009,10,12,16,38,10.20
2009,10,12,16,39,10.20
2009,10,12,16,40,10.20
2009,10,12,16,41,10.10
2009,10,12,16,42,10.10
2009,10,12,16,43,10.10
2009,10,12,16,44,10.10
2009,10,12,16,45,10.10
2009,10,12,16,46,10.10
2009,10,12,16,47,10.10
2009,10,12,16,48,10.10
2009,10,12,16,49,10.10
2009,10,12,16,50,10.10
2009,10,12,16,51,10.10
2009,10,12,16,52,10.10
2009,10,12,16,53,10.10
2009,10,12,16,54,10.10
2009,10,12,16,55,10.10
2009,10,12,16,56,10.10
2009,10,12,16,57,10.10
2009,10,12,16,58,10.10
2009,10,12,16,59,10.10
2009,10,12,17,00,10.10
2009,10,12,17,01,10.10
2009,10,12,17,02,10.10
2009,10,12,17,03,10.10
2009,10,12,17,04,10.10
2009,10,12,17,05,10.00
2009,10,12,17,06,10.00
2009,10,12,17,07,10.00
2009,10,12,17,08,10.00
2009,10,12,17,09,10.00
2009,10,12,17,10,9.90
2009,10,12,17,11,9.90
2009,10,12,17,12,9.90
2009,10,12,17,13,9.90
2009,10,12,17,14,9.90
2009,10,12,17,15,9.90
2009,10,12,17,16,9.90
2009,10,12,17,17,9.90
2009,10,12,17,18,9.80
2009,10,12,17,19,9.80
2009,10,12,17,20,9.80
2009,10,12,17,21,9.80
2009,10,12,17,22,9.80
2009,10,12,17,23,9.80
2009,10,12,17,24,9.80
2009,10,12,17,25,9.80
2009,10,12,17,26,9.80
2009,10,12,17,27,9.70
2009,10,12,17,28,9.70
2009,10,12,17,29,9.70
2009,10,12,17,30,9.70
2009,10,12,17,31,9.70
2009,10,12,17,32,9.70
2009,10,12,17,33,9.70
2009,10,12,17,34,9.70
2009,10,12,17,35,9.70
2009,10,12,17,36,9.70
2009,10,12,17,37,9.60
2009,10,12,17,38,9.60
2009,10,12,17,39,9.60
2009,10,12,17,40,9.60
2009,10,12,17,41,9.60
2009,10,12,17,42,9.60
2009,10,12,17,43,9.60
2009,10,12,17,44,9.60
2009,10,12,17,45,9.60
2009,10,12,17,46,9.50
2009,10,12,17,47,9.50
2009,10,12,17,48,9.50
2009,10,12,17,49,9.50
2009,10,12,17,50,9.50
2009,10,12,17,51,9.40
2009,10,12,17,52,9.40
2009,10,12,17,53,9.40
2009,10,12,17,54,9.40
2009,10,12,17,55,9.40
2009,10,12,17,56,9.40
2009,10,12,17,57,9.30
2009,10,12,17,58,9.30